Regional Weather Roundup
Issued by NWS

Home | Current Version | Previous Version | Graphics & Text | Print | Product List | Glossary Off
Versions: 1 2 3 4 5 6 7 8 9 10 11 12 13 14 15 16 17 18 19 20 21 22 23 24 25 26 27 28 29 30 31 32 33 34 35 36 37 38 39 40 41 42 43 44 45 46 47 48 49 50

000
ASUS43 KMPX 032201
RWRMN
WEATHER ROUNDUP FOR MINNESOTA
NATIONAL WEATHER SERVICE TWIN CITIES/CHANHASSEN MN
500 PM CDT WED JUN 03 2015


NOTE: "FAIR" INDICATES FEW OR NO CLOUDS BELOW 12,000 FEET WITH NO
SIGNIFICANT WEATHER AND/OR OBSTRUCTIONS TO VISIBILITY. N/A MEANS
CURRENT SKY AND/OR WEATHER CONDITIONS ARE NOT AVAILABLE.

MNZ060>063-068>070-032300-
   Twin Cities Metro

CITY           SKY/WX    TMP DP  RH WIND       PRES   REMARKS
TWIN CITIES    LGT RAIN  66  62  87 E7        29.84F
ST PAUL        CLOUDY    66  62  87 SE6       29.84F
CRYSTAL        CLOUDY    67  63  87 E7        29.83F FOG
BLAINE         DRIZZLE   66  64  94 E5        29.85F
LAKEVILLE      CLOUDY    66  63  88 E8        29.83F
EDEN PRAIRIE   LGT RAIN  65  63  93 E7        29.83F FOG
SOUTH ST PAUL  CLOUDY    67  64  88 SE3       29.84F
LAKE ELMO      FAIR      64  63  94 E6        29.85F
$$
MNZ001>005-007-008-013>017-022>024-027-028-032300-
   Northwest Minnesota

CITY           SKY/WX    TMP DP  RH WIND       PRES   REMARKS
BEMIDJI        CLOUDY    64  62  94 E3        29.85S
HALLOCK        RAIN      57  54  88 N13       29.92S
ROSEAU         LGT RAIN  63  57  82 N10       29.90R
WARROAD        CLOUDY    61  57  88 N8        29.91R
THIEF RVR FALL CLOUDY    63  59  88 N9        29.88R
CROOKSTON      LGT RAIN  59  59 100 N13       29.88S
FOSSTON        CLOUDY    64  63  94 CALM      29.86R FOG
DETROIT LAKES  DRZL/FOG  59  57  94 W6        29.89R VSB 1
MOORHEAD       CLOUDY    59  54  82 NW12      29.89R
PARK RAPIDS    CLOUDY    66  61  84 SW12      29.85S
MAHNOMEN       DRIZZLE   63  62  96 W13       29.85R
$$
MNZ006-009>011-018-025>026-032300-
   North Central Minnesota

CITY           SKY/WX    TMP DP  RH WIND       PRES   REMARKS
BAUDETTE       CLOUDY    62  58  86 NE7       29.88R
FLAG ISLAND    CLOUDY    63  55  77 NE8       29.89F
INTL FALLS     CLOUDY    62  60  93 E5        29.88R FOG
WASKISH        CLOUDY    64  61  88 E5        29.86S FOG
BIG FORK       CLOUDY    63  61  94 SE3       29.87F
LONGVILLE      CLOUDY    63  63 100 S5        29.85S FOG
GRAND RAPIDS   CLOUDY    61  59  94 CALM      29.88R
CRANE LAKE     CLOUDY    63  61  94 CALM      29.90R
ORR            CLOUDY    61  55  82 CALM      29.87R
COOK           CLOUDY    61  57  88 CALM      29.90R
WALKER         DRIZZLE   62  61  98 E3        29.85S
$$
MNZ012-019>021-037-032300-
   Northeast Minnesota

CITY           SKY/WX    TMP DP  RH WIND       PRES   REMARKS
DULUTH         CLOUDY    61  58  90 CALM      29.90R FOG
ELY            DRIZZLE   61  57  88 CALM      29.90F
HIBBING        CLOUDY    62  60  93 S5        29.88F
EVELETH        LGT RAIN  63  61  94 CALM      29.90R
DULUTH HARBOR  DRIZZLE   50  48  93 NE5       29.91R
TWO HARBORS    CLOUDY    63  57  82 CALM      29.89R
SILVER BAY     LGT RAIN  63  61  94 CALM      29.89S
GRAND MARAIS     N/A     49  47  93 SE5       29.92R
G MARAIS ARPRT CLOUDY    57  52  82 S5        29.94R
$$
MNZ029>031-032-039>041-046>048-054>057-064-032300-
   West Central Minnesota

CITY           SKY/WX    TMP DP  RH WIND       PRES   REMARKS
FERGUS FALLS   CLOUDY    59  57  94 W8        29.90S
WHEATON        CLOUDY    64  55  72 W7        29.91S
MORRIS         PTSUNNY   66  61  82 NW10      29.88F
ALEXANDRIA     CLOUDY    65  61  87 W12       29.89S
ELBOW LAKE     CLOUDY    60  56  89 W9        29.90S
WADENA         CLOUDY    64  61  88 W10       29.87R
GLENWOOD       CLOUDY    70  63  78 W13       29.88F
APPLETON       MOSUNNY   73  61  64 NW6       29.88S
BENSON         PTSUNNY   72  63  73 NW9       29.87F
ORTONVILLE     CLOUDY    70  59  68 N14       29.89R
MADISON        MOSUNNY   70  63  78 N5        29.89S
WILLMAR        FAIR      72  63  73 NW9       29.89S
$$
MNZ033>034-036-042>043-049>051-058-059-032300-
   Central Minnesota

CITY           SKY/WX    TMP DP  RH WIND       PRES   REMARKS
ST CLOUD       LGT RAIN  63  62  97 CALM      29.86S
SAUK CENTRE    MOCLDY    69  63  82 W3        29.88R
PAYNESVILLE    CLOUDY    64  62  90 S7        29.89S
AITKIN         LGT RAIN  64  57  77 SE6       29.85S
PINE RIVER     CLOUDY    64  61  88 S5        29.89S
BRAINERD       LGT RAIN  62  61  96 SW7       29.88R
STAPLES        CLOUDY    70  61  73 SW6       29.86S
LONG PRAIRIE   FAIR      68  63  83 SW3       29.88S
LITTLE FALLS   DRIZZLE   61  59  94 CALM      29.86F
LITCHFIELD     CLOUDY    68  64  88 W6        29.88S
BUFFALO        RAIN      63  60  91 CALM      29.87S
MAPLE LAKE     DRIZZLE   64  63  96 CALM      29.86F
$$
MNZ037-044-045-052-053-032300-
   East Central Minnesota

CITY           SKY/WX    TMP DP  RH WIND       PRES   REMARKS
PRINCETON      RAIN      64  63  94 CALM      29.87S
MORA           LGT RAIN  61  59  94 S5        29.89R
CAMBRIDGE      LGT RAIN  66  57  72 CALM      29.85S
RUSH CITY      LGT RAIN  62  61  94 SE5       29.87F
MOOSE LAKE     LGT RAIN  64  61  88 CALM      29.86S
HINCKLEY       LGT RAIN  64  63  94 SE7       29.87F
CLOQUET        CLOUDY    61  57  88 CALM      29.89F FOG
MCGREGOR       CLOUDY    63  61  94 SE5       29.88R
$$
MNZ071>073-080-081-089-090-097-098-032300-
   Southwest Minnesota

CITY           SKY/WX    TMP DP  RH WIND       PRES   REMARKS
MONTEVIDEO     MOSUNNY   73  72  94 N5        29.89F
GRANITE FALLS  SUNNY     73  61  65 NW3       29.89F
CANBY          CLOUDY    69  64  83 N5        29.90S
MARSHALL       MOSUNNY   73  61  64 N6        29.88S
REDWOOD FALLS  MOSUNNY   72  61  68 N7        29.87F
OLIVIA         MOSUNNY   68  59  73 W6        29.87F
PIPESTONE      PTSUNNY   75  63  64 NW6       29.89F
WINDOM         MOSUNNY   72  63  73 NW13      29.89F
WORTHINGTON    PTSUNNY   73  61  64 N7        29.89F
JACKSON        MOSUNNY   73  61  64 NW16G25   29.89S
TRACY          SUNNY     74  62  65 NE6       29.89F
SLAYTON        MOSUNNY   74  58  59 CALM      29.90F
$$
MNZ065>067-074>077-082>085-091>093-032300-
   South Central Minnesota

CITY           SKY/WX    TMP DP  RH WIND       PRES   REMARKS
MANKATO        CLOUDY    68  63  83 NW9       29.84R
NEW ULM        PTSUNNY   68  64  88 NW9       29.86S
ST JAMES       PTSUNNY   73  64  73 W14       29.87S
FAIRMONT       MOSUNNY   73  59  60 NW15      29.86S
GLENCOE        RAIN      64  64  99 CALM      29.85S
FARIBAULT      CLOUDY    72  64  78 S6        29.83F
OWATONNA       CLOUDY    72  63  73 S12       29.84F
WASECA         CLOUDY    72  64  78 S9        29.84F
ALBERT LEA     CLOUDY    72  64  78 CALM      29.84F
$$
MNZ078>079-086>088-094>096-032300-
   Southeast Minnesota

CITY           SKY/WX    TMP DP  RH WIND       PRES   REMARKS
ROCHESTER      LGT RAIN  73  63  70 W8        29.86S
RED WING         N/A     66  63  88 E9        29.84F
STANTON        DRIZZLE   69  64  83 E9        29.82F
DODGE CENTER   LGT RAIN  68  64  88 W8        29.86S
WINONA         CLOUDY    73  61  64 SE7       29.86F
AUSTIN         DRIZZLE   70  64  83 CALM      29.85S
PRESTON        CLOUDY    74  60  62 SE12G18   29.86F
$$
ABBREVIATIONS USED IN REMARKS
   TC - TEMPERATURES IN CELSIUS
  WCI - WIND CHILL INDEX
   HX - HEAT INDEX
  VSB - VISIBILITY
$$



USA.gov is the U.S. government's official web portal to all federal, state and local government web resources and services.